Flag for Germany Weather past 2 weeks in Friesoythe, Lower Saxony, Germany

Now
75 °F

Mild.


Feels Like: 77 °F
Forecast: 62 / 84 °F
Wind: 8 mph from Northeast

Location: Meppen-Mil

Current Time: Aug 30, 2015 at 6:25:01 PM

Latest Report: Aug 30, 2015 at 5:20 PM


Visibility: 4 mi

Pressure: 30.01 "Hg

Humidity: 74%

Dew point: 66 °F

Location of FriesoytheLocation

Historic Weather in Friesoythe — Graph

°F

Friesoythe temperature yesterday

Maximum temperature yesterday: 73 °F (at 4:20 PM)
Minimum temperature yesterday: 46 °F (at 5:20 AM)
Average temperature yesterday: 60 °F

Past Weeks' High & Low Weather Summary

 TemperatureHumidityPressure
High79 °F (Aug 21, 3:20 PM)100% (Aug 19, 5:20 AM)30.24 "Hg (Aug 19, 5:20 AM)
Low46 °F (Aug 29, 5:20 AM)28% (Aug 22, 4:20 PM)29.50 "Hg (Aug 24, 5:20 PM)
Average63 °F77%29.95 "Hg
* Reported Aug 15 5:20 PM — Aug 30 4:20 PM, Friesoythe, Weather by CustomWeather, © 2015

Note: Actual official high and low records may vary slightly from our data, if they occured in-between our weather recording intervals... More about our weather records

Advertising

Friesoythe weather history for previous 24 hours

 ConditionsComfort  
Time TempWeatherWind HumidityBarometerVisibility
4:20 PM
Sun, Aug 30
75 °FMild.8 mph69%30.01 "Hg4 mi
3:20 PM75 °FMild.6 mph69%30.01 "Hg4 mi
2:20 PM75 °FMild.7 mph69%30.01 "Hg4 mi
1:20 PM73 °FMild.5 mph69%30.04 "Hg4 mi
12:20 PM70 °FMild.6 mph78%30.07 "Hg4 mi
11:20 AM66 °FMild.6 mph78%30.07 "Hg3 mi
10:20 AM63 °FMild.6 mph88%30.04 "Hg3 mi
9:20 AM61 °FCool.6 mph88%30.07 "Hg3 mi
8:20 AM59 °FCool.5 mph88%30.09 "Hg3 mi
7:20 AM57 °FCool.3 mph94%30.09 "Hg2 mi
6:20 AM57 °FCool.5 mph88%30.07 "Hg3 mi
5:20 AM59 °FCool.5 mph82%30.09 "Hg4 mi
4:20 AM57 °FCool.6 mph88%30.09 "Hg4 mi
3:20 AM59 °FCool.6 mph82%30.09 "Hg4 mi
2:20 AM59 °FCool.5 mph82%30.12 "Hg5 mi
1:20 AM57 °FCool.5 mph82%30.12 "Hg5 mi
12:20 AM59 °FCool.5 mph82%30.12 "Hg5 mi
11:20 PM
Sat, Aug 29
57 °FCool.2 mph88%30.12 "Hg5 mi
10:20 PM57 °FCool.1 mph88%30.12 "Hg5 mi
9:20 PM59 °FCool.1 mph88%30.12 "Hg5 mi
8:20 PM64 °FMild.1 mph73%30.12 "Hg6 mi
7:20 PM70 °FMild.2 mph64%30.12 "Hg6 mi
6:20 PM73 °FMild.1 mph44%30.15 "Hg5 mi
Weather by CustomWeather, © 2015

See weather overviewHow to use our weather pages